Location: Papi
(0.3748°N, 29.7650°E)
Time: 20:51:33
(UTC+00:00)

Daily predictions for brighter satellites

Satellite Brightness Start Highest point End
(mag) Time Altitude Azimuth Time Altitude Azimuth Time Altitude Azimuth
Okean-O 3.1 16:26:10 10° SSE 16:30:22 43° ENE 16:34:33 10° N
ARGOS Delta rocket 3.9 16:26:22 10° S 16:30:46 75° W 16:35:16 10° NNW
Cosmos 1470 2.9 16:30:35 10° N 16:34:32 81° W 16:38:30 10° S
NOAA 11 4.2 16:29:45 10° SSE 16:35:09 64° ENE 16:40:30 10° N
ARIANE 5 R/B 2.9 16:30:48 10° W 16:36:47 81° N 16:40:35 10° E
FALCON 9 DEB 3.4 16:36:00 10° NNW 16:39:20 52° ENE 16:42:41 10° SE
CZ-4 R/B 1.9 16:37:04 10° SSE 16:40:56 40° ENE 16:44:41 10° N
Cosmos 1544 Rocket 4.0 16:37:46 10° N 16:42:11 67° W 16:46:36 10° S
Cosmos 2360 Rocket 3.0 16:40:17 10° SSE 16:45:03 28° ESE 16:49:48 10° NE
Cosmos 1818 3.5 16:40:53 10° SSW 16:46:12 64° ESE 16:51:32 10° NNE
Meteor 1-24 Rocket 3.9 16:41:11 10° S 16:46:35 50° E 16:52:08 10° NNE
SEDSat Delta rocket 4.0 16:44:15 10° SSW 16:49:00 38° SE 16:54:23 10° ENE
SJ 16-02 2.2 16:50:42 10° NNE 16:54:32 30° ENE 16:57:28 15° SE
Cosmos 1626 2.2 16:51:14 10° S 16:54:50 50° E 16:58:25 10° NNE
CZ-2D R/B 3.2 16:51:18 10° SSE 16:55:09 67° E 16:58:58 10° N
Cosmos 1939 Rocket 2.9 16:51:03 10° SSE 16:55:11 88° E 16:59:16 10° N
Cosmos 2227 Rocket 2.2 16:49:37 10° N 16:55:12 65° ENE 17:00:46 10° SSE
Cosmos 2098 Rocket 4.1 16:51:21 10° S 16:58:36 81° E 17:04:45 10° N
ARIANE 5 DEB (SYLDA) 3.7 16:56:48 10° W 17:00:24 77° N 17:08:40 10° E
Cosmos 1340 Rocket 3.1 16:56:40 10° NNW 17:00:35 69° W 17:04:29 10° S
Meteor 2-10 4.3 16:56:58 10° N 17:02:37 87° W 17:08:22 10° S
Cosmos 2219 3.7 16:59:02 10° NNW 17:04:33 62° WSW 17:10:08 10° S
Meteor 2-8 Rocket 4.4 16:58:47 10° N 17:04:47 62° E 17:10:46 10° SSE
SL-16 R/B 3.1 16:59:27 10° SSW 17:04:57 53° WNW 17:10:27 10° N
USA 215 3.3 16:58:38 10° NE 17:04:59 57° SE 17:11:21 10° SSW
FUSE 3.9 16:59:42 10° WNW 17:05:04 86° NNE 17:08:39 21° ESE
Cosmos 1417 Rocket 4.4 17:00:39 10° N 17:06:50 75° E 17:13:00 10° S
Cosmos 1809 Rocket 4.4 17:04:10 10° S 17:10:16 62° E 17:16:20 10° NNE
ATLAS 5 CENTAUR R/B 2.5 17:10:52 10° SW 17:14:49 44° WNW 17:18:37 10° N
Cosmos 1898 Rocket 3.9 17:10:44 10° N 17:15:32 40° ENE 17:17:49 26° SE
Hubble Space Telescope 3.3 17:14:47 10° WNW 17:17:49 20° NNW 17:20:51 10° NNE
CSL-04 Debris 4.1 17:17:36 11° SSE 17:22:52 79° ENE 17:28:18 10° N
GPS 2-17 Rocket1 3.1 17:21:52 10° WNW 17:26:25 68° SSW 17:28:01 39° SE
CZ-2C R/B 2.5 17:21:24 10° NNE 17:26:31 59° ESE 17:31:36 10° S
Cosmos 990 Rocket 3.9 17:23:46 10° N 17:28:50 64° ENE 17:31:09 32° SSE
Orbus 7S 3.5 17:22:06 10° WNW 17:29:06 64° NNE 17:29:59 45° E
CSL-04 Rocket 3.6 17:24:02 12° SSE 17:29:11 87° ENE 17:34:42 10° NNW
CZ-3 Stage 3 4.0 17:07:22 10° WNW 17:30:40 48° SW 17:33:46 23° SSE
H-2A R/B 2.4 17:29:27 33° SE 17:31:24 48° ENE 17:36:35 10° N
GEOS 3 Rocket 3.5 17:26:48 10° NNE 17:32:08 76° ESE 17:37:23 10° SSW
GMS 1 Rocket B 4.3 17:28:35 10° WSW 17:32:49 78° NNW 17:34:19 36° NE
BREEZE-M (TANK) 1.9 17:30:15 10° SW 17:33:03 63° W 17:33:03 63° W
GPS 2-12 Rocket1 3.2 17:29:00 10° WSW 17:33:44 56° SSE 17:34:35 48° ESE
SWIFT 4.4 17:31:06 10° SSW 17:32:29 15° S 17:32:29 15° S
Yuri Rocket 4.5 17:29:49 10° W 17:34:19 37° SSW 17:36:42 26° SSE
Cosmos 1726 Rocket 3.8 17:33:16 10° NNE 17:37:18 46° ENE 17:37:18 46° ENE
DMSP B5D2-2 3.9 17:32:52 10° NNE 17:38:03 83° ESE 17:43:16 10° S
Centaur D-1AR AC-38 3.1 17:33:45 10° WSW 17:38:08 70° SSE 17:39:02 50° E
BLOCK DM-SL R/B 2.3 17:38:02 10° W 17:41:19 87° S 17:46:16 30° E
SJ-11-01 4.2 17:43:11 41° S 17:44:47 88° W 17:49:26 10° NNW
Cosmos 1908 3.6 17:41:09 10° NNW 17:45:00 62° W 17:46:04 42° SSW
NOSS 3-3 (A) 3.5 17:43:16 10° SSW 17:48:53 84° ESE 17:54:30 10° NNE
NOSS 3-3 (C) 3.5 17:43:23 10° SSW 17:48:59 82° ESE 17:54:37 10° NNE
HJ-1C 4.3 17:49:21 43° WSW 17:49:26 43° W 17:52:35 10° NNW
ARIANE 5 DEB (SYLDA) 3.5 17:37:56 10° W 17:50:16 88° N 17:51:10 60° ENE
Meteor 1-21 Rocket 4.2 17:53:49 59° ESE 17:54:05 60° E 17:59:52 10° NNE
ARIANE 5 DEB (SYLDA) 3.9 17:50:33 10° W 17:54:32 84° N 17:56:52 43° E
USA 234 3.7 17:51:42 28° SSE 17:55:10 55° SW 18:01:32 10° NW
Cosmos 2297 Rocket 4.4 17:51:33 10° WNW 17:55:43 21° WSW 17:59:54 10° SSW
CZ-2C R/B 3.9 17:51:45 10° N 17:56:29 74° WNW 17:58:41 32° SSW
IRS-1A Rocket 4.4 17:59:48 55° NE 17:59:48 55° NE 18:04:42 10° N
Cosmos 1937 Rocket 3.4 17:55:58 10° NNW 18:01:15 86° WSW 18:01:38 77° S
Cosmos 783 Rocket 4.4 17:58:44 29° SSW 18:01:28 84° W 18:06:43 10° N
Ariane H10+ 3.2 17:59:54 10° W 18:03:15 85° N 18:04:41 54° ENE
Cosmos 1626 Rocket 4.2 18:05:03 47° WSW 18:05:42 52° W 18:10:01 10° N
Cosmos 1745 Rocket 4.1 18:15:08 62° NNE 18:15:08 62° NNE 18:20:16 10° N
Intelsat 5-1 Rocket 4.2 18:12:37 10° NW 18:13:47 16° NNW 18:13:47 16° NNW
Cosmos 2322 4.0 18:11:16 10° SSW 18:16:54 63° WNW 18:22:33 10° N
Ariane H10+ 4.5 18:08:05 10° W 18:18:28 88° S 18:21:12 58° E
Cosmos 2219 Rocket 4.3 18:30:59 15° NNE 18:30:59 15° NNE 18:31:51 10° NNE
Ariane 3 Deb 3.7 18:09:26 10° W 18:29:57 87° WNW 18:29:57 87° WNW
ARIANE 5 R/B 3.7 18:02:48 10° W 18:38:02 70° SSW 18:38:02 70° SSW
Cosmos 2333 Rocket 4.0 18:43:01 24° N 18:43:01 24° N 18:45:17 10° N
Ariane H10 4.1 18:36:12 10° WSW 18:39:37 43° SW 18:39:37 43° SW
Cosmos 2263 Rocket 4.0 18:40:44 10° N 18:42:44 23° N 18:42:44 23° N
